Regional Weather Roundup
Issued by NWS

Home | Current Version | Previous Version | Text Only | Print | Product List | Glossary On
Versions: 1 2 3 4 5 6 7 8 9 10 11 12 13 14 15 16 17 18 19 20 21 22 23 24 25 26 27 28 29 30 31 32 33 34 35 36 37 38 39 40 41 42 43 44 45 46 47 48 49 50
000
ASUS43 KIND 231059
RWRIN

WEATHER ROUNDUP FOR INDIANA
NATIONAL WEATHER SERVICE INDIANAPOLIS IN
700 AM EDT THU OCT 23 2014

NOTE: "FAIR" INDICATES FEW OR NO CLOUDS BELOW 12,000 FEET WITH NO
SIGNIFICANT WEATHER AND/OR OBSTRUCTIONS TO VISIBILITY.

* - STATION DOES NOT REPORT WEATHER SUCH AS PRECIPITATION OR FOG.

+ - STATION NOT QUALITY CONTROLLED BY THE NATIONAL WEATHER SERVICE.
    USE DATA WITH CAUTION...ESPECIALLY DEWPOINT AND RELATIVE
    HUMIDITY OBSERVATIONS.

INZ001>003-010>013-019-020-231200-
NORTHWEST INDIANA

CITY           SKY/WX    TMP DP  RH WIND       PRES   REMARKS
GARY /AIRPORT/ CLEAR     41  39  93 SE9       30.23F
VALPARAISO     NOT AVBL

$$

LMZ046-743>745-231200-
SOUTHERN LAKE MICHIGAN

STATION/POSITION TIME  TEMP WIND        PRES
                       AIR  DIR/SP/G
                 (UTC) (F)  (DEG/KT/KT) (MB)
MICHIGAN CITY    1000   41  130/ 12/ 14   N/A

$$

INZ004-005-014>016-021>024-231200-
NORTH CENTRAL INDIANA

CITY           SKY/WX    TMP DP  RH WIND       PRES   REMARKS
ELKHART        LGT RAIN  32  30  93 CALM      30.26  VSB 1/4
GOSHEN         FOG       30  29  96 CALM      30.26S VSB 1/4
PERU/GRISSOM   CLEAR     36  36 100 SE5       30.25S FOG
SOUTH BEND     CLEAR     34  31  88 SE3       30.26S FOG

$$

INZ006>009-017-018-025>027-231200-
NORTHEAST INDIANA

CITY           SKY/WX    TMP DP  RH WIND       PRES   REMARKS
ANGOLA *+      CLOUDY    28  10  47 CALM      30.25S VSB 1/2
FORT WAYNE     FOG       30  29  96 CALM      30.27S VSB 1/4

$$

INZ028-029-035-036-043>045-051>053-231200-
WEST CENTRAL INDIANA

CITY           SKY/WX    TMP DP  RH WIND       PRES   REMARKS
GREENCASTLE +  FOG       36  36 100 CALM      30.26S VSB 1/2
LAFAYETTE      CLEAR     36  35  96 CALM      30.25S FOG
TERRE HAUTE    CLEAR     36  35  96 E3        30.25F

$$

INZ030>032-037>040-046>048-054>057-064-065-231200-
CENTRAL INDIANA

CITY           SKY/WX    TMP DP  RH WIND       PRES   REMARKS
CP ATTERBURY + FOG       32  32 100 CALM      30.28R VSB<1/4
COLUMBUS       CLEAR     32  32 100 CALM      30.27  FOG
INDIANAPOLIS   CLEAR     39  36  89 CALM      30.25S
-EAGLE CREEK   CLEAR     37  34  89 CALM      30.25S
KOKOMO *+        N/A     32  30  93 SE5       30.27S VSB 1/4 WCI  27
MT COMFORT *+  CLOUDY    30 N/A N/A CALM      30.26F VSB<1/4
SHELBYVILLE    FOG       33  31  92 E5        30.26S VSB 3/4 WCI  29

$$

INZ033-034-041-042-049-050-058-059-231200-
EAST CENTRAL INDIANA

CITY           SKY/WX    TMP DP  RH WIND       PRES   REMARKS
MUNCIE         CLEAR     33  31  92 CALM      30.26S

$$

INZ060-061-067>069-081>083-085>088-231200-
SOUTHWEST INDIANA

CITY           SKY/WX    TMP DP  RH WIND       PRES   REMARKS
EVANSVILLE     CLEAR     39  37  92 N3        30.25S
HUNTINGBURG *+ CLEAR     37  34  87 CALM      30.26R

$$

INZ062-063-066-070>080-084-089>092-231200-
SOUTH CENTRAL AND SOUTHEAST INDIANA

CITY           SKY/WX    TMP DP  RH WIND       PRES   REMARKS
BLOOMINGTON    CLEAR     34  32  92 CALM      30.25S FOG

$$




USA.gov is the U.S. government's official web portal to all federal, state and local government web resources and services.